This demonstration page uses our WeatherBlox Daily Observations layout. Learn more.

Left ArrowRight Arrow

Hourly Observations for August 10, 2021

Temp ( °F °C ) Dew Point ( °F °C ) Humidity (%) Winds ( mph kmh ) Pressure ( in mb ) Visibility ( mi km ) Precip ( " mm )
12:51 am 00:51 Clear 79 26.1 65 18.3 62 62 NW 6 9 29.82 1010 10 16 0.00 0.00
1:51 am 01:51 Clear 79 26.1 66 18.9 65 65 W 6 9 29.82 1010 10 16 0.00 0.00
2:51 am 02:51 Clear 78 25.6 66 18.9 67 67 Calm 29.83 1010 10 16 0.00 0.00
3:51 am 03:51 Clear 76 24.4 66 18.9 72 72 SSE 3 6 29.83 1010 10 16 0.00 0.00
4:51 am 04:51 Mostly Cloudy 75 23.9 66 18.9 74 74 E 5 7 29.84 1011 10 16 0.00 0.00
5:51 am 05:51 Cloudy 76 24.4 66 18.9 72 72 Calm 29.86 1011 10 16 0.00 0.00
6:51 am 06:51 Mostly Cloudy 79 26.1 64 17.8 60 60 NW 7 11 29.89 1012 10 16 0.00 0.00
7:27 am 07:27 Cloudy with Strong Thunderstorms 71 21.7 69 20.6 94 94 SW 10 17 29.97 1015 1 2 0.25 6.35
7:34 am 07:34 Cloudy with Thunderstorms 72 22.2 69 20.6 91 91 WSW 15 24 29.96 1015 3 5 0.29 7.37
7:51 am 07:51 Cloudy with Thunderstorms 69 20.6 68 20 96 96 WNW 14 22 29.95 1014 3 4 0.33 8.38
8:06 am 08:06 Mostly Cloudy with Thunderstorms 68 20 68 20 100 100 N 14 22 29.99 1015 5 8 0.05 1.27
8:32 am 08:32 Mostly Cloudy with Light Rain 69 20.6 65 18.3 87 87 N 10 17 29.98 1015 10 16 0.06 1.52
8:51 am 08:51 Partly Cloudy with Light Rain 70 21.1 65 18.3 84 84 N 5 7 29.97 1015 10 16 0.06 1.52
9:51 am 09:51 Partly Cloudy 74 23.3 68 20 82 82 ENE 5 7 30.00 1016 10 16 0.00 0.00
10:51 am 10:51 Sunny 76 24.4 68 20 77 77 SW 6 9 29.99 1016 10 16 0.00 0.00
11:51 am 11:51 Sunny 79 26.1 69 20.6 72 72 WNW 7 11 29.98 1015 10 16 0.00 0.00
12:51 pm 12:51 Sunny 81 27.2 70 21.1 69 69 NW 7 11 29.95 1014 10 16 0.00 0.00
1:51 pm 13:51 Sunny 82 27.8 69 20.6 65 65 W 12 19 29.91 1013 10 16 0.00 0.00
2:51 pm 14:51 Sunny 83 28.3 67 19.4 59 59 W 12 19 29.89 1012 10 16 0.00 0.00
3:51 pm 15:51 Sunny 83 28.3 66 18.9 57 57 W 6 9 29.89 1012 10 16 0.00 0.00
4:51 pm 16:51 Sunny 84 28.9 64 17.8 51 51 Calm 29.87 1012 10 16 0.00 0.00
5:51 pm 17:51 Sunny 84 28.9 62 16.7 48 48 Calm 29.85 1011 10 16 0.00 0.00
6:51 pm 18:51 Sunny 83 28.3 64 17.8 53 53 SSW 3 6 29.85 1011 10 16 0.00 0.00
7:51 pm 19:51 Clear 81 27.2 67 19.4 62 62 SSW 5 7 29.88 1012 10 16 0.00 0.00
8:51 pm 20:51 Clear 78 25.6 70 21.1 76 76 Calm 29.92 1013 10 16 0.00 0.00
9:51 pm 21:51 Clear 78 25.6 66 18.9 67 67 ESE 5 7 29.93 1014 10 16 0.00 0.00
10:51 pm 22:51 Clear 76 24.4 67 19.4 74 74 ESE 7 11 29.93 1014 10 16 0.00 0.00
11:51 pm 23:51 Clear 76 24.4 67 19.4 74 74 ESE 7 11 29.93 1013 10 16 0.00 0.00

Powered by AerisWeather